Temp
12 12 12 12 12 12 12 12 12 12 13 13 13 14 14 14 15 14 16 17 18 19 19 20 21 21 22 21 23 22 18 19 21 23 24 23 23 24 22 22 23 22 21 21 20
12 12 12 12 12 12 12 12 12 12 12 13 13 13 14 14 14 14 15 17 18 18 19 19 19 20 19 21 21 19 17 20 22 23 23 24 24 22 23 23 23 22 20 18 19
11 12 12 12 12 12 12 12 12 12 12 12 13 13 13 14 14 16 17 16 17 18 18 19 19 20 20 20 20 21 19 21 22 22 22 22 23 24 23 23 22 22 19 17 17
11 11 12 12 12 12 12 12 12 12 12 12 13 13 13 13 14 17 17 18 18 17 18 19 19 18 19 19 21 20 21 21 21 22 22 22 21 21 23 22 23 23 20 18 16
10 11 11 12 12 11 12 12 12 12 12 12 12 13 12 13 15 17 17 17 16 16 17 17 17 18 17 19 19 19 20 21 21 21 21 22 21 21 20 20 21 22 19 18 17
10 10 11 11 12 12 11 12 12 12 12 12 12 12 12 13 16 16 16 17 16 16 16 17 17 18 18 18 18 18 18 19 20 19 20 20 20 21 21 21 20 22 20 18 18
10 10 10 11 11 12 12 11 12 12 12 12 12 12 12 14 16 16 16 16 16 16 16 16 17 18 17 18 16 17 18 17 19 19 19 21 19 19 19 19 20 19 20 20 19
10 10 10 10 11 11 12 11 11 12 12 12 12 11 12 14 15 15 15 16 16 16 16 15 16 14 15 15 16 16 16 16 19 19 19 20 19 19 19 18 19 18 18 19 20
9 9 10 10 10 11 11 11 11 11 11 11 11 11 12 14 14 15 15 16 15 15 15 15 15 14 14 15 15 15 15 15 16 18 18 18 19 19 19 19 18 17 17 19 19
9 9 9 10 10 10 11 11 11 10 10 11 11 10 11 12 15 15 15 16 14 13 13 13 13 14 14 15 16 16 15 16 16 18 18 17 18 18 19 19 20 18 17 17 18
8 9 9 9 10 10 10 9 9 9 10 10 10 11 13 14 15 15 15 15 13 12 13 13 13 14 14 16 16 16 16 16 17 17 18 17 18 18 18 17 17 18 18 20 18
8 8 9 9 9 10 10 10 11 11 10 10 11 11 13 15 13 13 15 13 13 13 14 13 14 15 16 15 14 15 15 15 16 16 16 16 16 17 18 18 19 19 19 19 20
8 8 8 9 9 9 9 10 11 12 10 10 11 11 12 14 13 13 13 12 13 13 13 14 15 15 15 14 14 14 15 15 15 15 16 15 14 16 18 18 20 20 20 21 20
7 8 8 8 8 8 8 10 10 10 9 9 10 11 11 13 12 14 14 13 12 12 12 12 14 14 14 14 15 14 14 15 14 14 14 15 14 16 17 17 19 19 19 20 21
7 7 8 8 8 8 9 9 10 8 10 10 10 13 12 12 12 12 14 11 12 12 12 13 12 13 13 14 14 14 15 15 14 15 14 14 14 15 16 16 18 17 17 18 20
7 7 7 7 8 8 9 9 9 9 9 9 11 10 11 12 13 12 12 12 12 11 12 13 14 13 14 15 14 14 15 14 14 13 14 14 13 16 17 17 18 18 19 20 19
6 7 7 7 7 9 9 8 8 9 8 9 10 11 11 11 12 11 11 11 12 11 12 12 12 14 15 13 13 12 13 13 13 13 14 14 13 16 17 18 17 18 18 19 17
7 7 7 7 7 8 8 7 8 9 8 7 10 11 10 11 11 11 11 12 12 11 12 11 10 13 14 14 13 12 13 14 13 13 13 12 13 15 17 18 18 18 19 19 19
6 6 6 6 7 8 7 8 8 6 8 9 10 10 10 11 11 11 12 11 11 11 12 11 11 14 14 14 14 13 13 14 13 12 10 13 14 16 17 17 17 17 17 17 18
5 5 5 6 7 7 6 8 6 9 10 10 10 9 10 10 11 11 11 12 11 12 13 13 12 14 13 14 13 14 13 12 12 10 12 12 12 15 17 18 17 18 18 17 17
5 4 5 6 6 6 7 7 5 9 10 11 9 10 10 10 11 11 10 12 12 12 12 13 12 13 13 13 13 12 13 13 13 11 13 13 12 15 17 17 17 16 17 17 17
4 4 5 6 5 5 6 6 8 7 9 10 10 11 10 10 11 11 10 12 13 13 12 12 11 9 11 13 14 14 13 13 12 11 10 12 14 16 16 17 17 15 16 15 15
3 4 5 6 6 6 5 6 7 8 7 8 10 11 11 11 11 11 11 13 13 13 12 12 10 5 8 11 13 12 13 14 13 12 12 11 13 16 15 15 16 15 14 14 14
3 2 5 5 4 4 6 5 6 7 9 7 10 11 11 11 12 10 12 12 12 13 12 14 10 10 11 11 12 11 12 12 12 11 12 12 13 15 15 14 14 13 14 15 16
2 3 3 5 5 6 6 7 7 7 8 8 8 12 12 10 11 11 12 11 11 12 12 12 8 10 11 11 11 12 12 11 11 12 11 13 13 14 15 13 14 15 15 15 15
3 4 4 5 5 6 6 6 7 6 7 7 7 12 12 11 12 10 12 11 12 11 12 10 8 9 7 11 11 10 11 10 11 11 10 11 10 13 14 13 13 13 11 9 9
5 5 5 6 4 5 7 7 8 9 6 8 9 11 11 12 11 13 13 12 11 12 10 10 7 7 4 9 9 6 9 11 12 11 11 11 13 14 11 10 8 6 6 7 7
Height
792 796 799 801 804 807 809 811 813 815 818 821 822 824 825 825 826 828 829 829 828 828 830 831 830 829 829 829 827 828 854 858 846 838 834 823 824 818 818 823 824 825 825 823 825
787 790 795 797 800 804 806 809 811 814 816 819 820 822 823 825 825 825 826 827 828 829 830 831 831 830 832 831 830 839 857 847 832 830 834 825 823 825 825 826 827 827 827 827 827
782 785 789 793 797 800 803 806 809 811 814 817 819 821 822 824 825 816 819 823 825 827 829 830 831 831 834 831 833 833 848 835 830 828 827 830 828 823 826 831 825 827 828 830 831
777 780 784 789 792 796 799 803 806 809 812 815 817 819 822 824 831 811 811 816 820 824 828 828 830 834 836 838 829 839 831 830 829 825 827 829 827 831 826 826 820 819 818 825 829
772 776 780 784 788 792 796 799 804 807 810 813 815 817 820 821 816 813 812 816 821 823 826 828 831 833 839 834 833 835 832 828 827 826 827 825 827 829 828 822 819 818 818 819 822
767 771 775 779 783 787 791 796 800 804 808 811 813 816 818 816 813 814 815 817 821 823 825 826 826 827 831 832 836 832 833 832 828 830 829 831 828 826 823 818 819 816 817 816 816
760 765 770 774 779 783 787 793 797 802 806 808 811 814 814 808 810 812 814 817 818 822 824 826 826 827 829 831 832 831 836 834 830 830 831 826 830 829 821 819 818 817 813 812 811
753 760 765 769 774 779 783 788 793 799 804 807 811 813 808 806 808 810 814 817 819 821 823 826 827 831 833 833 833 837 839 847 830 829 829 831 828 822 817 819 816 813 811 808 806
747 754 759 765 770 775 780 785 790 796 802 806 810 812 807 802 803 808 813 815 819 821 824 826 828 832 834 837 843 844 848 847 841 829 832 834 822 817 811 813 815 812 810 804 799
740 748 754 760 766 771 777 783 789 796 802 805 808 816 803 800 800 805 809 812 818 822 827 828 831 833 832 835 837 841 845 841 838 832 830 832 819 816 812 809 806 807 803 802 797
734 741 748 754 761 767 775 782 788 796 796 793 795 793 789 794 799 801 806 811 818 823 826 827 833 826 827 828 831 833 836 836 829 831 832 829 821 817 810 809 807 802 797 793 791
727 734 742 749 756 763 769 771 771 774 790 792 792 795 791 793 799 801 805 813 818 819 821 828 823 823 823 827 835 835 838 832 830 830 834 831 825 814 810 803 798 794 789 789 782
720 728 736 745 753 760 762 766 772 773 785 788 791 793 792 794 796 798 801 807 813 817 815 819 816 820 822 828 833 832 832 832 835 832 830 835 831 813 799 793 788 781 781 776 775
714 722 731 741 754 754 757 762 770 772 785 783 787 786 790 792 795 791 796 802 810 812 818 820 812 819 821 823 825 832 826 829 833 839 838 832 830 808 803 795 785 781 778 771 767
708 717 726 735 739 745 752 761 771 776 767 771 777 777 780 786 784 787 791 800 806 808 813 807 812 816 820 814 821 824 821 825 829 829 832 833 834 803 797 795 784 781 773 765 757
702 712 721 731 738 742 751 759 769 773 749 760 759 769 777 779 780 784 790 797 801 809 809 802 802 807 808 809 816 817 820 823 826 832 827 818 829 806 797 785 777 770 762 753 752
695 706 716 724 730 739 748 758 760 748 750 755 755 756 761 772 780 783 787 794 797 808 806 805 805 800 798 811 815 821 827 831 831 829 815 804 821 800 782 769 769 759 756 750 748
686 703 710 719 730 736 744 754 739 736 744 749 745 756 757 765 777 780 784 787 789 794 799 808 822 800 795 800 807 817 819 820 825 818 819 813 813 790 770 759 756 755 748 745 742
688 698 705 714 723 731 738 731 729 740 738 744 744 755 757 761 767 775 775 779 781 784 793 803 801 787 787 790 799 808 815 806 817 817 833 809 795 775 763 758 755 754 749 746 739
685 697 702 710 719 728 731 723 734 728 724 735 740 748 748 755 760 767 775 769 777 776 778 784 795 782 784 788 791 792 799 815 819 830 811 803 799 781 761 755 754 752 752 748 739
685 696 700 708 717 722 716 723 731 724 725 728 738 740 743 744 748 759 769 764 765 772 779 780 786 786 783 785 788 800 800 804 804 814 802 796 791 759 756 758 755 756 755 749 740
684 696 696 704 709 713 714 720 717 724 731 731 725 725 731 736 744 753 757 754 754 763 774 780 787 802 788 777 778 781 785 793 804 811 815 798 780 753 753 753 753 756 756 751 748
685 692 696 699 701 704 715 719 721 721 732 733 723 718 722 732 746 746 749 750 753 759 766 772 789 828 810 790 777 781 781 782 787 795 793 801 779 745 755 757 756 759 756 752 747
685 699 692 698 705 707 708 719 724 721 720 730 720 714 720 729 727 743 743 748 751 754 760 763 779 779 778 786 774 781 780 781 786 794 777 784 768 746 756 763 761 757 749 744 741
681 684 686 688 701 700 707 707 713 720 721 722 725 704 709 725 730 733 740 748 750 751 756 763 788 778 775 773 775 773 774 780 781 772 787 764 772 743 756 760 756 754 749 745 746
676 677 671 685 698 697 700 708 706 717 713 720 724 698 703 712 706 726 725 737 741 752 753 766 784 781 799 776 775 776 772 778 778 779 780 778 772 750 751 752 754 754 759 764 760
671 678 682 686 700 703 695 697 699 704 715 707 713 703 706 702 708 710 717 728 736 736 751 762 782 793 819 783 783 801 775 769 764 767 768 774 751 741 760 762 767 771 770 768 764
Wind_Speed
23 27 26 23 21 18 16 15 13 13 15 12 10 9 9 7 8 4 7 6 6 11 7 9 8 9 6 2 2 3 3 2 4 3 4 3 3 2 3 5 2 3 2 3 28
27 22 28 26 23 20 17 16 14 12 14 12 11 8 10 8 6 12 9 10 11 10 6 5 5 13 2 2 2 4 3 6 5 4 5 3 1 4 2 2 2 1 3 18 24
23 25 21 27 26 23 19 17 16 13 12 11 11 9 8 5 3 5 21 21 13 13 7 4 6 3 2 1 3 4 4 5 11 5 5 2 6 2 4 2 5 4 8 12 12
25 24 24 21 27 25 21 18 16 13 11 11 10 10 8 7 7 4 15 22 21 16 6 3 3 1 2 2 4 4 5 5 8 7 4 3 3 5 2 6 4 1 8 14 9
26 27 26 25 23 27 23 19 17 16 12 12 10 11 10 6 9 6 8 18 16 14 13 6 5 4 5 4 4 6 5 6 9 8 5 6 3 4 6 9 9 2 10 13 13
27 28 27 26 24 24 26 22 18 16 14 12 11 13 6 17 13 13 4 10 9 11 10 9 4 6 3 5 5 3 2 4 4 8 5 7 5 1 4 6 9 7 8 10 13
29 29 28 26 26 24 25 24 19 18 15 13 13 12 9 13 8 5 15 7 13 11 7 3 1 2 1 0 3 2 4 5 2 4 5 4 10 6 8 10 12 10 9 9 12
31 30 30 28 26 25 24 25 22 18 16 13 12 11 7 11 23 8 11 11 11 9 2 3 8 4 3 2 4 3 3 2 3 6 7 5 19 5 8 8 12 12 11 10 11
34 30 29 29 26 24 23 24 23 19 15 12 8 6 7 9 10 26 10 15 12 7 4 5 4 2 2 2 2 1 6 4 6 8 7 8 20 6 11 10 10 9 10 13 12
36 35 32 30 26 24 23 22 20 15 12 10 3 3 6 3 9 12 15 12 5 6 4 3 3 3 5 7 13 6 5 5 9 2 5 10 21 9 9 10 15 11 10 10 10
36 36 34 31 30 25 22 13 7 5 15 6 10 5 1 17 11 14 17 11 5 3 7 7 4 14 14 10 13 2 3 8 6 6 14 13 18 12 11 8 10 13 14 15 12
35 35 35 31 28 27 27 7 5 10 6 15 5 13 4 8 5 7 22 8 7 10 9 4 14 8 4 8 9 11 11 14 9 7 6 10 17 17 14 14 13 17 17 15 16
33 33 33 31 28 26 26 29 21 23 4 12 9 9 10 6 7 12 15 7 6 10 13 11 5 11 7 8 8 11 15 12 8 4 10 9 15 16 15 16 17 21 20 18 18
32 34 34 31 21 22 20 31 24 5 5 6 14 6 8 3 6 14 20 9 5 15 6 8 13 7 11 14 11 15 7 7 9 5 6 7 6 16 9 17 20 17 18 21 21
31 33 35 36 13 23 14 24 27 5 11 17 12 11 12 11 7 9 18 3 10 7 8 12 10 12 12 14 7 10 7 9 9 9 8 7 5 10 3 10 15 10 10 13 19
34 36 37 37 24 24 19 27 17 9 9 8 14 16 16 16 2 6 8 5 4 4 3 16 4 9 11 14 11 5 1 4 2 1 10 16 10 12 10 15 12 9 14 18 13
33 37 40 37 24 24 30 13 11 6 10 11 13 23 27 15 17 8 14 15 11 11 14 6 12 3 3 5 6 5 5 4 5 5 5 9 7 16 16 20 12 18 15 13 10
36 40 41 36 32 30 31 9 17 9 5 3 11 24 22 18 16 12 17 17 18 5 6 12 5 15 6 10 7 7 10 7 8 5 4 2 7 8 17 18 18 20 21 17 17
39 32 31 33 37 34 11 17 15 5 10 7 17 23 14 18 11 14 20 21 15 16 9 8 8 5 8 7 10 5 7 12 12 10 3 5 6 14 14 16 10 9 9 10 11
26 21 20 32 39 27 11 13 8 2 7 11 9 13 12 22 13 17 18 16 6 17 4 4 2 7 8 6 10 15 6 3 3 4 11 7 7 9 9 4 7 8 7 9 8
14 5 14 36 31 11 11 7 4 8 5 17 10 8 7 19 19 19 12 6 16 19 8 4 3 4 9 8 11 4 11 6 3 4 3 6 6 9 9 5 6 9 10 12 8
4 3 22 36 7 5 11 6 3 7 7 11 5 3 15 23 20 18 16 11 16 16 19 5 3 4 6 4 6 16 18 15 8 7 4 3 11 3 11 14 14 8 12 10 12
6 3 25 24 9 5 6 6 3 5 7 4 8 6 9 15 9 13 16 14 12 15 15 10 4 2 7 6 3 5 6 8 5 5 16 9 12 1 9 8 12 11 9 10 9
4 3 4 7 1 5 7 9 6 6 8 9 7 5 13 16 3 13 13 11 10 12 11 16 4 8 10 5 5 5 5 6 8 7 18 15 25 28 15 7 9 13 15 18 17
1 2 3 13 11 11 5 14 19 7 6 15 7 18 16 9 8 9 10 5 7 12 9 11 7 6 1 6 2 4 6 10 14 17 9 19 14 25 13 8 13 16 18 18 16
3 3 3 8 9 13 14 9 16 4 12 7 10 21 18 15 14 15 15 9 12 5 12 3 3 3 1 3 5 9 11 7 6 5 9 9 18 19 15 10 8 9 9 11 14
5 6 1 11 6 6 10 5 22 15 7 5 18 13 15 17 8 12 9 8 8 15 7 8 6 3 4 3 1 8 7 13 12 8 8 11 22 22 11 11 12 11 12 13 15
Wind_Direction
245 239 237 237 238 239 237 238 240 244 240 243 242 236 232 235 247 235 228 225 222 255 299 315 333 322 310 279 286 49 50 260 257 286 308 220 140 299 143 108 59 10 40 174 159
248 247 239 237 235 237 236 233 240 243 237 242 239 241 232 236 242 241 226 230 239 248 275 348 330 339 319 290 282 120 141 226 246 305 333 281 47 163 79 126 162 156 60 141 154
247 242 244 236 235 234 235 232 234 235 232 233 230 226 220 226 293 237 242 227 228 239 243 259 296 346 301 355 264 198 190 265 290 304 28 47 347 316 153 203 204 211 179 168 169
245 242 240 239 232 233 233 230 231 230 228 221 220 214 193 180 222 301 225 218 222 222 183 202 247 175 225 230 265 254 255 260 277 304 351 312 297 338 274 239 350 302 171 165 173
240 244 240 237 233 228 229 230 229 227 224 215 210 201 177 213 226 60 126 202 210 214 200 195 197 185 192 224 321 252 252 264 269 288 319 300 248 244 265 275 284 263 154 179 185
240 238 237 232 229 225 224 225 221 221 218 209 206 202 209 231 219 226 154 166 193 195 222 209 203 213 278 207 212 318 336 308 331 312 316 285 274 181 293 305 310 266 202 199 195
240 236 232 228 225 224 219 217 216 213 215 209 202 204 234 227 231 235 215 215 177 192 187 186 145 175 288 283 319 4 345 340 290 295 286 335 283 239 250 258 256 254 257 223 214
236 235 230 227 222 218 217 210 210 207 208 204 198 203 239 234 228 255 201 196 177 181 179 129 79 101 47 267 15 49 48 276 196 231 260 181 262 252 261 256 251 248 240 239 234
232 229 227 221 217 215 212 208 204 199 198 190 178 188 236 225 215 231 234 205 188 169 201 173 122 86 107 114 297 149 254 237 283 234 258 201 269 261 227 254 259 257 252 246 238
227 226 221 217 211 210 208 204 198 185 180 169 164 113 265 207 161 205 213 187 138 129 100 131 128 179 195 187 223 205 215 234 244 279 269 265 270 259 252 260 272 267 258 252 243
219 217 215 212 211 203 193 173 162 174 182 186 177 203 340 184 180 189 191 173 103 188 181 184 181 216 210 208 243 316 221 250 257 289 262 263 279 294 278 255 257 260 262 260 248
214 212 210 206 201 198 192 203 188 149 170 224 249 218 283 164 158 189 192 157 179 200 183 182 225 212 154 176 208 228 235 254 275 268 336 324 297 290 279 266 252 261 264 261 252
210 209 205 202 200 197 194 199 168 150 149 193 212 198 220 231 211 196 175 155 184 198 188 213 227 187 209 224 215 231 235 243 242 321 294 302 293 278 268 254 260 260 262 257 251
206 206 203 197 187 191 202 202 182 44 192 175 198 239 184 181 229 175 199 160 200 202 175 217 234 214 210 230 208 243 200 210 221 222 263 168 286 274 277 276 275 275 258 259 260
207 204 202 188 175 190 191 196 189 106 224 168 174 176 158 179 136 206 180 147 186 180 169 217 172 197 217 226 170 251 188 228 232 247 256 235 255 283 219 271 268 275 265 256 250
200 201 193 186 195 195 173 177 175 195 222 168 156 171 159 195 210 132 160 118 181 200 239 226 156 175 201 222 202 217 185 238 200 194 239 237 209 262 259 251 263 259 260 267 268
198 200 190 181 192 177 173 143 196 228 152 152 175 173 176 175 194 167 171 183 183 192 214 219 233 275 179 177 185 170 155 251 234 212 256 234 202 242 266 254 259 274 266 268 270
193 195 190 187 187 175 168 187 218 190 192 236 164 174 182 154 197 173 172 194 208 197 177 214 225 202 190 195 174 189 195 220 242 222 269 17 207 245 229 270 264 260 269 268 276
173 175 184 184 182 178 173 206 208 163 147 148 151 176 178 174 149 171 196 202 200 198 172 185 237 197 184 174 149 206 198 233 256 263 287 235 261 288 269 264 254 281 288 273 281
152 170 186 183 179 178 201 194 153 210 133 155 164 181 169 175 167 184 187 199 210 197 189 178 205 206 202 144 210 208 149 227 200 243 250 233 224 232 251 275 311 301 326 304 304
130 134 171 185 176 186 205 197 175 146 157 186 175 174 199 168 182 185 191 186 184 186 173 170 125 275 137 199 187 197 224 219 206 191 255 249 244 226 252 309 320 330 328 319 319
106 139 172 168 179 172 200 168 196 148 211 226 197 125 174 176 183 184 208 196 189 166 198 172 129 205 230 220 187 207 215 212 223 234 239 304 270 237 288 295 315 333 338 357 350
124 118 164 167 190 163 145 161 194 153 187 225 202 179 165 166 166 188 190 200 178 178 179 169 211 80 340 324 244 210 195 196 212 243 248 247 260 186 281 320 323 337 343 320 308
122 137 161 181 133 137 156 176 185 222 210 202 256 149 130 162 152 180 175 176 179 175 156 165 171 202 216 205 173 198 183 204 205 230 248 240 262 276 277 308 321 324 313 306 312
106 163 239 171 193 194 179 175 187 179 198 190 277 172 168 155 155 165 159 145 150 176 164 168 193 196 191 302 112 200 227 222 216 239 235 264 258 270 288 293 292 286 289 293 322
126 110 307 135 123 177 179 189 183 163 176 185 237 170 166 167 181 169 167 156 168 135 175 178 166 123 35 196 259 275 257 207 228 242 254 272 270 274 281 270 280 283 19 34 357
111 118 21 157 161 170 192 180 206 182 234 197 214 172 189 192 157 169 128 127 166 168 151 150 125 115 242 241 90 298 223 227 239 215 228 245 258 280 357 359 23 39 33 9 356